Tracking 29528 objects as of 13-Sep-2024
HD Live streaming from Space Station
objects crossing your sky now

THORAD AGENA D DEB

Track THORAD AGENA D DEB now!
10-day predictions


NORAD ID: 5502
Int'l Code: 1970-025LG
Perigee: 384.5 km
Apogee: 428.9 km
Inclination: 99.5 °
Period: 92.6 minutes
Semi major axis: 6777 km
RCS: 0.0134 m2 (small)
Launch date: April 8, 1970
Source: United States (US)
Launch site: AIR FORCE WESTERN TEST RANGE (AFWTR)

Note: This is SATELLITE DEBRIS
Your satellite tracking list
Your tracking list is empty




NASA's NSSDC Master Catalog

Two Line Element Set (TLE):
1  5502U 70025LG  24257.11487989  .03635639  00000-0  44731-1 0  9998
2  5502  99.5014  43.7082 0032762 298.1716  61.6223 15.55888931765191
Source of the keplerian elements: AFSPC